EW8792 Morava BG current weather conditions

sailwx.info

Wind from 319

Air temperature 13.9° C
Dewpoint 10.1° C

Last reported at 2018-Oct-17 17:45 UTC.
Time now 2018-Oct-17 18:19 UTC

Location: N 43°28' E 025°13'.
View on Google Maps.

See reports from other nearby stations

  
Tides and Currents Weather Stations Pressure Air Temp Water Temp Dewpoint Dewpoint Depression Visibility Wind Speed Wind Dir Waves Ship Positions
date/time (UTC)wind fromknots sea level pressurealtimeterstation pressurevisibilityair tempwater tempwave heightnotes
2018-Oct-17 17:45 319 13.9
2018-Oct-17 17:40 309 0 gusting 1 13.9
2018-Oct-17 17:35 225 14.4
2018-Oct-17 17:30 285 14.4
2018-Oct-17 17:25 314 14.4
2018-Oct-17 17:20 313 0 gusting 1 15.0
2018-Oct-17 17:15 155 15.0
2018-Oct-17 17:10 138 15.0
2018-Oct-17 17:05 234 15.0
2018-Oct-17 17:00 315 15.0
2018-Oct-17 16:55 340 15.0
2018-Oct-17 16:50 079 15.0
2018-Oct-17 16:45 316 15.0
2018-Oct-17 16:40 296 15.6
2018-Oct-17 16:35 254 15.0
2018-Oct-17 16:30 225 0 gusting 1 15.0
2018-Oct-17 16:25 15.6
2018-Oct-17 16:20 097 15.6
2018-Oct-17 16:15 097 15.6
2018-Oct-17 16:10 15.6
2018-Oct-17 16:05 001 16.1
2018-Oct-17 16:00 333 16.1
2018-Oct-17 15:55 327 16.1
2018-Oct-17 15:50 275 1 gusting 1 16.7
2018-Oct-17 15:45 136 16.7
2018-Oct-17 15:40 106 16.7
2018-Oct-17 15:35 102 17.2
2018-Oct-17 15:30 120 17.2
2018-Oct-17 15:25 126 0 gusting 2 17.2
2018-Oct-17 15:20 107 17.8
2018-Oct-17 15:15 111 1 gusting 3 17.8
2018-Oct-17 15:10 111 1 gusting 3 17.8
2018-Oct-17 15:05 119 1 gusting 3 17.8
2018-Oct-17 15:00 116 2 gusting 3 18.3
2018-Oct-17 14:55 108 1 gusting 3 18.3
2018-Oct-17 14:50 121 1 gusting 3 18.3
2018-Oct-17 14:45 110 1 gusting 3 18.3
2018-Oct-17 14:40 111 1 gusting 3 18.9
2018-Oct-17 14:35 129 0 gusting 3 18.9
2018-Oct-17 14:30 135 1 gusting 3 18.9
2018-Oct-17 14:25 104 1 gusting 4 18.9
2018-Oct-17 14:20 108 1 gusting 5 19.4
2018-Oct-17 14:15 122 1 gusting 6 19.4
2018-Oct-17 14:10 109 3 gusting 6 19.4
2018-Oct-17 14:05 121 2 gusting 6 19.4
2018-Oct-17 14:00 126 3 gusting 6 19.4
2018-Oct-17 13:55 133 3 gusting 6 19.4
2018-Oct-17 13:50 133 3 gusting 5 19.4
2018-Oct-17 13:45 085 1 gusting 5 20.0
2018-Oct-17 13:40 087 3 gusting 5 20.0
2018-Oct-17 13:35 097 1 gusting 5 20.0
2018-Oct-17 13:30 089 2 gusting 4 20.6
2018-Oct-17 13:25 074 0 gusting 3 20.6
2018-Oct-17 13:20 083 1 gusting 3 20.6
2018-Oct-17 13:15 027 21.1
2018-Oct-17 13:10 012 21.1
2018-Oct-17 13:05 023 20.6
2018-Oct-17 13:00 037 1 gusting 3 21.1
2018-Oct-17 12:55 013 21.1
2018-Oct-17 12:50 355 0 gusting 2 21.1
2018-Oct-17 12:45 052 21.1
2018-Oct-17 12:40 090 0 gusting 2 20.6
2018-Oct-17 12:35 093 0 gusting 1 20.6
2018-Oct-17 12:30 023 1 gusting 2 21.1
2018-Oct-17 12:25 010 1 gusting 3 21.1
2018-Oct-17 12:20 359 0 gusting 3 20.6
2018-Oct-17 12:15 004 1 gusting 3 21.1
2018-Oct-17 12:10 359 21.1
2018-Oct-17 12:05 341 0 gusting 3 21.1
2018-Oct-17 11:55 347 0 gusting 2 21.1
2018-Oct-17 11:50 324 0 gusting 2 21.1
2018-Oct-17 11:45 317 0 gusting 2 21.1
2018-Oct-17 11:40 021 0 gusting 3 21.1
2018-Oct-17 11:35 057 21.1
2018-Oct-17 11:30 086 1 gusting 3 21.7
2018-Oct-17 11:25 113 21.7
2018-Oct-17 11:20 107 0 gusting 3 21.7
2018-Oct-17 11:15 104 21.1
2018-Oct-17 11:10 102 20.6
2018-Oct-17 11:05 099 0 gusting 3 20.6
2018-Oct-17 11:00 102 1 gusting 3 20.6
2018-Oct-17 10:55 098 1 gusting 3 20.6
2018-Oct-17 10:50 056 1 gusting 2 21.1
2018-Oct-17 10:45 333 0 gusting 2 21.1
2018-Oct-17 10:40 332 0 gusting 2 21.1
2018-Oct-17 10:35 133 21.7
2018-Oct-17 10:30 134 0 gusting 1 21.7
2018-Oct-17 10:25 116 21.7
2018-Oct-17 10:20 106 0 gusting 3 21.7
2018-Oct-17 10:15 115 1 gusting 3 21.1
2018-Oct-17 10:10 086 1 gusting 3 21.1
2018-Oct-17 10:05 082 1 gusting 3 21.1
2018-Oct-17 10:00 096 1 gusting 3 20.6
2018-Oct-17 09:55 097 0 gusting 3 20.6
2018-Oct-17 09:50 090 1 gusting 3 20.6
2018-Oct-17 09:45 052 1 gusting 3 20.6
2018-Oct-17 09:40 067 1 gusting 5 20.6
2018-Oct-17 09:35 074 0 gusting 5 20.6
2018-Oct-17 09:30 064 1 gusting 3 21.1
2018-Oct-17 09:25 112 1 gusting 5 20.6
2018-Oct-17 09:20 112 1 gusting 5 19.4
2018-Oct-17 09:15 118 3 gusting 4 19.4
2018-Oct-17 09:10 122 2 gusting 3 19.4
2018-Oct-17 09:05 106 1 gusting 3 19.4
2018-Oct-17 09:00 095 1 gusting 3 19.4
2018-Oct-17 08:55 050 1 gusting 3 19.4
2018-Oct-17 08:50 035 1 gusting 3 19.4
2018-Oct-17 08:45 023 1 gusting 3 19.4
2018-Oct-17 08:40 006 0 gusting 3 19.4
2018-Oct-17 08:35 352 1 gusting 4 19.4
2018-Oct-17 08:30 321 18.9
2018-Oct-17 08:25 300 1 gusting 5 19.4
2018-Oct-17 08:20 311 1 gusting 5 19.4
2018-Oct-17 08:15 326 0 gusting 3 19.4
2018-Oct-17 08:10 332 0 gusting 3 19.4
2018-Oct-17 08:05 329 19.4
2018-Oct-17 08:00 334 1 gusting 5 19.4
2018-Oct-17 07:55 328 1 gusting 5 19.4
2018-Oct-17 07:50 318 1 gusting 3 20.0
2018-Oct-17 07:45 303 0 gusting 3 19.4
2018-Oct-17 07:40 303 0 gusting 3 18.9
2018-Oct-17 07:35 087 18.3
2018-Oct-17 07:30 054 0 gusting 1 17.8
2018-Oct-17 07:25 053 1 gusting 1 17.8
2018-Oct-17 07:20 086 1 gusting 1 17.8
2018-Oct-17 07:15 094 0 gusting 1 17.2
2018-Oct-17 07:10 108 16.7
2018-Oct-17 07:05 103 1 gusting 1 16.7
2018-Oct-17 07:00 097 0 gusting 1 16.1
2018-Oct-17 06:55 096 15.6
2018-Oct-17 06:50 104 14.4
2018-Oct-17 06:45 112 0 gusting 1 13.9
2018-Oct-17 06:40 110 13.9
2018-Oct-17 06:35 090 0 gusting 1 14.4
2018-Oct-17 06:30 13.9
2018-Oct-17 06:25 14.4
2018-Oct-17 06:20 12.2
2018-Oct-17 06:15 11.7
2018-Oct-17 06:10 11.1
2018-Oct-17 06:05 11.1
2018-Oct-17 06:00 10.6
2018-Oct-17 05:55 10.6
2018-Oct-17 05:50 10.6
2018-Oct-17 05:45 10.0
2018-Oct-17 05:40 9.4
2018-Oct-17 05:35 8.9
2018-Oct-17 05:30 8.3
2018-Oct-17 05:25 7.8
2018-Oct-17 05:20 6.7
2018-Oct-17 05:15 6.1
2018-Oct-17 05:10 5.0
2018-Oct-17 05:05 4.4
2018-Oct-17 05:00 4.4
2018-Oct-17 04:55 3.9
2018-Oct-17 04:50 3.9
2018-Oct-17 04:45 3.9
2018-Oct-17 04:40 001 3.9
2018-Oct-17 04:35 001 3.9
2018-Oct-17 04:30 3.9
2018-Oct-17 04:25 3.9
2018-Oct-17 04:20 3.9
2018-Oct-17 04:15 3.9
2018-Oct-17 04:10 3.9
2018-Oct-17 04:05 3.9
2018-Oct-17 04:00 3.9
2018-Oct-17 03:55 4.4
2018-Oct-17 03:50 001 4.4
2018-Oct-17 03:45 001 4.4
2018-Oct-17 03:40 4.4
2018-Oct-17 03:35 3.9
2018-Oct-17 03:30 3.9
2018-Oct-17 03:25 4.4
2018-Oct-17 03:20 4.4
2018-Oct-17 03:15 4.4
2018-Oct-17 03:10 4.4
2018-Oct-17 03:05 4.4
2018-Oct-17 03:00 4.4
2018-Oct-17 02:55 4.4
2018-Oct-17 02:50 4.4
2018-Oct-17 02:45 4.4
2018-Oct-16 17:35 001 11.1
2018-Oct-16 17:30 001 11.1
2018-Oct-16 17:25 11.1
2018-Oct-16 17:20 11.1
2018-Oct-16 17:15 11.7
2018-Oct-16 17:10 11.7
2018-Oct-16 17:05 001 11.7
2018-Oct-16 17:00 001 12.2
2018-Oct-16 16:55 12.2
2018-Oct-16 16:50 300 12.2
2018-Oct-16 16:45 302 12.8
2018-Oct-16 16:40 303 12.8
2018-Oct-16 16:35 12.8
2018-Oct-16 16:30 13.3
2018-Oct-16 16:25 13.3
2018-Oct-16 16:20 13.3
2018-Oct-16 16:15 13.9
2018-Oct-16 16:10 14.4
2018-Oct-16 16:05 14.4
2018-Oct-16 16:00 15.0
2018-Oct-16 15:55 15.6
2018-Oct-16 15:50 15.6
2018-Oct-16 15:45 16.1
2018-Oct-16 15:40 16.7
2018-Oct-16 15:35 17.2
2018-Oct-16 15:30 17.2
2018-Oct-16 15:25 17.8
2018-Oct-16 15:20 001 18.3
2018-Oct-16 15:15 001 18.9
2018-Oct-16 15:10 324 19.4
2018-Oct-16 15:05 315 19.4
2018-Oct-16 15:00 329 20.0
2018-Oct-16 14:55 354 20.6
2018-Oct-16 14:50 349 20.6
2018-Oct-16 14:45 325 20.6
2018-Oct-16 14:40 308 21.1
2018-Oct-16 14:35 312 0 gusting 2 21.1
2018-Oct-16 14:30 334 0 gusting 2 21.1
2018-Oct-16 14:25 359 21.1
2018-Oct-16 14:20 006 21.7
2018-Oct-16 14:15 343 21.7
2018-Oct-16 14:10 330 0 gusting 3 21.7
2018-Oct-16 14:05 326 22.2
2018-Oct-16 14:00 334 1 gusting 3 22.2
2018-Oct-16 13:55 337 0 gusting 3 22.2
2018-Oct-16 13:50 308 1 gusting 3 22.2
2018-Oct-16 13:45 307 0 gusting 3 22.2
2018-Oct-16 13:40 351 22.8
2018-Oct-16 13:35 026 0 gusting 2 23.3
2018-Oct-16 13:30 045 0 gusting 4 23.9
2018-Oct-16 13:25 048 1 gusting 4 23.9
2018-Oct-16 13:20 081 24.4
2018-Oct-16 13:15 150 0 gusting 3 24.4
2018-Oct-16 13:10 107 23.9
2018-Oct-16 13:05 054 0 gusting 3 23.9
2018-Oct-16 13:00 043 1 gusting 3 23.9
2018-Oct-16 12:55 100 0 gusting 3 23.9
2018-Oct-16 12:50 112 0 gusting 3 23.9
2018-Oct-16 12:45 121 1 gusting 3 23.3
2018-Oct-16 06:15 090 13.9
2018-Oct-16 06:10 090 14.4
2018-Oct-16 06:05 023 15.0
2018-Oct-16 06:00 023 14.4
2018-Oct-16 05:55 13.9
2018-Oct-16 05:50 13.3
2018-Oct-16 05:45 12.2
2018-Oct-16 05:40 11.7
2018-Oct-16 05:35 11.1
2018-Oct-16 05:30 10.0
2018-Oct-16 05:25 9.4
2018-Oct-16 05:20 8.9
2018-Oct-16 05:15 7.8
2018-Oct-16 05:10 7.2
2018-Oct-16 05:05 6.1
2018-Oct-16 05:00 5.6
2018-Oct-16 04:55 5.0
2018-Oct-16 04:50 4.4
2018-Oct-16 04:45 4.4
2018-Oct-16 04:40 314 4.4
2018-Oct-16 04:35 314 4.4
2018-Oct-16 04:30 057 4.4
2018-Oct-16 04:25 084 4.4
2018-Oct-16 04:20 4.4
2018-Oct-16 04:15 4.4
2018-Oct-16 04:10 5.0
2018-Oct-16 04:05 5.0
2018-Oct-16 04:00 5.0
2018-Oct-16 03:55 5.0
2018-Oct-16 03:50 5.0
2018-Oct-16 03:45 5.0
2018-Oct-16 03:40 5.0
2018-Oct-16 03:35 314 5.0
2018-Oct-16 03:30 314 5.0
2018-Oct-16 03:25 5.0
2018-Oct-16 03:20 5.6
2018-Oct-16 03:15 5.6
2018-Oct-16 03:10 5.6
2018-Oct-16 03:05 5.6